TimeEDT,TemperatureF,Dew PointF,Humidity,Sea Level PressureIn,VisibilityMPH,Wind Direction,Wind SpeedMPH,Gust SpeedMPH,PrecipitationIn,Events,Conditions,WindDirDegrees,DateUTC
12:47 AM,42.8,37.4,81,29.59,10.0,West,11.5,-,0.00,Rain,Light Rain,270,2012-11-02 04:47:00
12:54 AM,43.0,39.0,86,29.58,10.0,West,11.5,-,0.00,Rain,Light Rain,260,2012-11-02 04:54:00
1:33 AM,42.8,39.2,87,29.59,10.0,WSW,10.4,-,0.01,Rain,Light Rain,250,2012-11-02 05:33:00
1:46 AM,42.8,39.2,87,29.59,10.0,WSW,10.4,-,0.01,Rain,Light Rain,250,2012-11-02 05:46:00
1:54 AM,43.0,39.0,86,29.59,10.0,WSW,11.5,-,0.01,Rain,Light Rain,240,2012-11-02 05:54:00
2:26 AM,42.8,39.2,87,29.60,10.0,West,10.4,-,0.01,Rain,Light Rain,260,2012-11-02 06:26:00
2:52 AM,42.8,39.2,87,29.60,10.0,West,10.4,-,0.01,Rain,Light Rain,260,2012-11-02 06:52:00
2:54 AM,42.1,39.0,89,29.60,10.0,WSW,9.2,-,0.01,Rain,Light Rain,250,2012-11-02 06:54:00
3:17 AM,42.8,37.4,81,29.59,10.0,West,11.5,-,0.00,Rain,Light Rain,260,2012-11-02 07:17:00
3:54 AM,42.1,39.0,89,29.59,10.0,West,10.4,-,0.00,Rain,Light Rain,260,2012-11-02 07:54:00
4:23 AM,42.8,39.2,87,29.59,10.0,WSW,10.4,-,0.00,Rain,Light Rain,250,2012-11-02 08:23:00
4:46 AM,42.8,39.2,87,29.59,10.0,West,10.4,-,0.00,Rain,Light Rain,260,2012-11-02 08:46:00
4:54 AM,42.1,37.9,85,29.59,10.0,West,16.1,19.6,0.00,Rain,Light Rain,260,2012-11-02 08:54:00
5:17 AM,41.0,37.4,87,29.59,10.0,West,10.4,-,0.00,Rain,Light Rain,270,2012-11-02 09:17:00
5:39 AM,42.8,37.4,81,29.59,10.0,West,6.9,-,0.00,Rain,Light Rain,270,2012-11-02 09:39:00
5:54 AM,42.1,39.0,89,29.60,10.0,West,11.5,-,0.00,Rain,Light Rain,270,2012-11-02 09:54:00
6:45 AM,41.0,37.4,87,29.60,10.0,West,13.8,-,0.01,Rain,Light Rain,260,2012-11-02 10:45:00
6:54 AM,41.0,37.0,86,29.60,10.0,West,9.2,-,0.01,Rain,Light Rain,280,2012-11-02 10:54:00
7:36 AM,41.0,37.4,87,29.61,7.0,West,10.4,-,0.01,Rain,Light Rain,270,2012-11-02 11:36:00
7:39 AM,41.0,37.4,87,29.61,7.0,West,9.2,-,0.01,Rain,Light Rain,280,2012-11-02 11:39:00
7:54 AM,39.9,37.0,89,29.61,10.0,West,9.2,-,0.02,Rain,Light Rain,280,2012-11-02 11:54:00
8:37 AM,39.2,37.4,93,29.62,10.0,WSW,13.8,-,0.03,Rain,Light Rain,250,2012-11-02 12:37:00
8:54 AM,41.0,37.0,86,29.62,10.0,WSW,12.7,-,0.03,Rain,Light Rain,250,2012-11-02 12:54:00
9:54 AM,41.0,37.0,86,29.64,10.0,West,15.0,-,0.00,,Light Drizzle,260,2012-11-02 13:54:00
10:11 AM,41.0,37.4,87,29.65,10.0,West,13.8,-,0.00,,Light Drizzle,270,2012-11-02 14:11:00
10:51 AM,41.0,37.4,87,29.65,10.0,West,10.4,-,0.00,Rain,Light Rain,260,2012-11-02 14:51:00
10:54 AM,41.0,37.9,89,29.65,10.0,West,12.7,-,0.00,Rain,Light Rain,260,2012-11-02 14:54:00
11:54 AM,42.1,37.0,82,29.65,10.0,West,13.8,-,N/A,,Overcast,260,2012-11-02 15:54:00
12:04 PM,42.8,37.4,81,29.66,10.0,West,12.7,-,N/A,,Overcast,270,2012-11-02 16:04:00
12:21 PM,42.8,37.4,81,29.66,10.0,West,13.8,-,N/A,,Overcast,280,2012-11-02 16:21:00
12:54 PM,41.0,37.0,86,29.67,8.0,WNW,12.7,19.6,0.00,Rain,Light Rain,290,2012-11-02 16:54:00
1:04 PM,42.8,37.4,81,29.67,10.0,WNW,10.4,-,0.00,Rain,Light Rain,290,2012-11-02 17:04:00
1:12 PM,42.8,37.4,81,29.67,10.0,West,13.8,-,0.00,Rain,Light Rain,280,2012-11-02 17:12:00
1:19 PM,42.8,37.4,81,29.66,10.0,West,12.7,-,0.00,Rain,Light Rain,280,2012-11-02 17:19:00
1:31 PM,42.8,37.4,81,29.67,10.0,West,12.7,19.6,0.00,Rain,Light Rain,280,2012-11-02 17:31:00
1:45 PM,42.8,37.4,81,29.67,10.0,West,13.8,-,0.00,Rain,Light Rain,280,2012-11-02 17:45:00
1:54 PM,42.1,37.0,82,29.67,10.0,West,15.0,-,0.00,Rain,Light Rain,270,2012-11-02 17:54:00
2:11 PM,42.8,37.4,81,29.67,10.0,West,15.0,-,0.00,,Overcast,270,2012-11-02 18:11:00
2:32 PM,41.0,37.4,87,29.67,10.0,West,13.8,-,0.00,Rain,Light Rain,280,2012-11-02 18:32:00
2:54 PM,42.1,37.0,82,29.67,10.0,West,15.0,-,0.01,Rain,Light Rain,260,2012-11-02 18:54:00
3:39 PM,41.0,35.6,81,29.69,10.0,West,16.1,-,0.00,Rain,Light Rain,280,2012-11-02 19:39:00
3:47 PM,39.2,35.6,87,29.69,10.0,WNW,15.0,21.9,0.00,Rain,Light Rain,290,2012-11-02 19:47:00
3:54 PM,41.0,36.0,82,29.70,10.0,West,12.7,-,0.00,Rain,Light Rain,280,2012-11-02 19:54:00
4:05 PM,41.0,37.4,87,29.70,10.0,West,15.0,-,0.00,Rain,Light Rain,270,2012-11-02 20:05:00
4:44 PM,39.2,35.6,87,29.71,10.0,West,13.8,-,0.01,Rain,Light Rain,270,2012-11-02 20:44:00
4:54 PM,39.9,36.0,86,29.71,10.0,West,15.0,-,0.01,Rain,Light Rain,270,2012-11-02 20:54:00
5:13 PM,39.2,35.6,87,29.72,10.0,West,13.8,-,0.00,Rain,Light Rain,260,2012-11-02 21:13:00
5:43 PM,39.2,35.6,87,29.73,10.0,West,13.8,-,0.01,Rain,Light Rain,260,2012-11-02 21:43:00
5:54 PM,39.0,36.0,89,29.73,9.0,WSW,12.7,-,0.01,Rain,Light Rain,250,2012-11-02 21:54:00
6:15 PM,39.2,35.6,87,29.74,8.0,West,16.1,-,0.00,Rain,Light Rain,270,2012-11-02 22:15:00
6:54 PM,39.0,36.0,89,29.75,10.0,WSW,13.8,-,0.01,Rain,Light Rain,250,2012-11-02 22:54:00
7:54 PM,37.9,36.0,93,29.77,10.0,West,13.8,-,0.01,Rain,Light Rain,260,2012-11-02 23:54:00
7:58 PM,37.4,35.6,93,29.77,10.0,West,13.8,-,0.00,Rain,Light Rain,260,2012-11-02 23:58:00
8:08 PM,37.4,35.6,93,29.77,10.0,West,11.5,-,0.01,Rain,Light Rain,260,2012-11-03 00:08:00
8:23 PM,37.4,35.6,93,29.77,10.0,West,10.4,-,0.01,Rain,Light Rain,260,2012-11-03 00:23:00
8:32 PM,37.4,35.6,93,29.77,10.0,West,10.4,-,0.02,Rain,Light Rain,260,2012-11-03 00:32:00
8:39 PM,37.4,35.6,93,29.77,10.0,West,9.2,-,0.02,Rain,Light Rain,260,2012-11-03 00:39:00
8:50 PM,37.4,35.6,93,29.78,10.0,West,10.4,-,0.02,Rain,Light Rain,260,2012-11-03 00:50:00
8:54 PM,37.9,36.0,93,29.78,10.0,WSW,10.4,-,0.02,Rain,Light Rain,250,2012-11-03 00:54:00
9:06 PM,37.4,35.6,93,29.78,10.0,WSW,11.5,-,0.00,Rain,Light Rain,250,2012-11-03 01:06:00
9:49 PM,39.2,35.6,87,29.79,10.0,WSW,10.4,-,0.01,Rain,Light Rain,250,2012-11-03 01:49:00
9:54 PM,39.0,36.0,89,29.79,10.0,WSW,10.4,-,0.01,Rain,Light Rain,250,2012-11-03 01:54:00
9:57 PM,39.2,37.4,93,29.79,10.0,WSW,10.4,-,0.00,Rain,Light Rain,250,2012-11-03 01:57:00
10:23 PM,37.4,35.6,93,29.79,10.0,WSW,10.4,-,0.00,Rain,Light Rain,250,2012-11-03 02:23:00
10:37 PM,39.2,35.6,87,29.79,10.0,WSW,10.4,-,0.00,Rain,Light Rain,250,2012-11-03 02:37:00
10:54 PM,39.0,36.0,89,29.79,10.0,West,11.5,-,0.00,Rain,Light Rain,260,2012-11-03 02:54:00
11:54 PM,39.0,36.0,89,29.80,10.0,WSW,10.4,-,0.00,Rain,Light Rain,250,2012-11-03 03:54:00